Home > Time Zones > World Clock > Weather > U.S.A. > Erie > Past weeks

Flag for U.S.A. Weather past 2 weeks in Erie, Pennsylvania, U.S.A.

41 °F

Light rain. Low clouds.

Feels Like: 36 °F
Forecast: 36 / 44 °F
Wind: 7 mph from Northeast

Location: Erie International Airport

Current Time: Nov 28, 2015 at 4:54:54 AM

Latest Report: Nov 28, 2015 at 3:51 AM

Visibility: 10 mi

Pressure: 30.29 "Hg

Humidity: 89%

Dew point: 38 °F

Location of ErieLocation

Historic Weather in Erie — Graph


Erie temperature yesterday

Maximum temperature yesterday: 60 °F (at 12:51 AM)
Minimum temperature yesterday: 42 °F (at 11:51 PM)
Average temperature yesterday: 55 °F

Past Weeks' High & Low Weather Summary

High65 °F (Nov 17, 1:51 PM)93% (Nov 27, 6:51 PM)30.55 "Hg (Nov 27, 6:51 PM)
Low29 °F (Nov 23, 7:51 AM)26% (Nov 21, 12:51 PM)29.65 "Hg (Nov 21, 7:51 PM)
Average46 °F56%30.18 "Hg
* Reported Nov 13 2:51 AM — Nov 28 2:51 AM, Erie, Weather by CustomWeather, © 2015

Note: Actual official high and low records may vary slightly from our data, if they occured in-between our weather recording intervals... More about our weather records


Erie weather history for previous 24 hours

Time TempWeatherWind HumidityBarometerVisibility
2:51 AM
Sat, Nov 28
41 °FLight rain. Mostly cloudy.8 mph89%30.29 "Hg8 mi
1:51 AM42 °FLight rain. Fog.9 mph89%30.29 "Hg5 mi
12:51 AM42 °FLight rain. Fog.9 mph92%30.30 "Hg3 mi
11:51 PM
Fri, Nov 27
42 °FLight rain. Mostly cloudy.10 mph92%30.30 "Hg7 mi
10:51 PM44 °FLight rain. Fog.9 mph89%30.31 "Hg4 mi
9:51 PM45 °FLight rain. Fog.10 mph90%30.30 "Hg3 mi
8:57 PM46 °FLight rain. Fog.9 mph93%30.29 "Hg3 mi
7:51 PM48 °FFog.6 mph89%30.28 "Hg5 mi
6:51 PM48 °FLight rain. Fog.6 mph93%30.27 "Hg6 mi
5:51 PM56 °FLight rain. Fog.9 mph90%30.24 "Hg4 mi
4:51 PM57 °FOvercast.14 mph83%30.23 "Hg10 mi
3:51 PM57 °FLight rain. Mostly cloudy.14 mph83%30.22 "Hg6 mi
2:51 PM56 °FMostly cloudy.16 mph84%30.22 "Hg10 mi
1:51 PM55 °FLight rain. Fog.17 mph87%30.24 "Hg4 mi
12:51 PM56 °FLight rain. Overcast.17 mph77%30.27 "Hg8 mi
11:51 AM60 °FCloudy.17 mph58%30.28 "Hg10 mi
10:51 AM59 °FPartly sunny.22 mph56%30.28 "Hg10 mi
9:51 AM59 °FPartly sunny.22 mph54%30.30 "Hg10 mi
8:51 AM60 °FOvercast.25 mph52%30.31 "Hg10 mi
7:51 AM59 °FPartly sunny.20 mph51%30.29 "Hg10 mi
6:51 AM59 °FPassing clouds.18 mph51%30.30 "Hg10 mi
5:51 AM59 °FOvercast.22 mph49%30.30 "Hg10 mi
4:51 AM59 °FOvercast.16 mph48%30.32 "Hg10 mi
Weather by CustomWeather, © 2015

See weather overviewHow to use our weather pages